ONEWEB-0095 (45436 NORAD) Tracking and Keplerian Element Data

This shows tracking and keplerian element data for the satellite.

Feedback or suggestion? Click here.




ElementValue
Catalog45436
NameONEWEB-0095
Epoch Orbit3162
Epoch Day293.91673611
Epoch Year2020
RAAN72.7307
Inclination87.7949
Eccentricity0.0017922
Argument of Perigee255.6625
Mean Anonmoly260.7844
Mean Motion13.97146646
Decay Rate-0.00013005
L11 45436U 20020N 20293.91673611 -.00013005 00000-0 -93276-2 0 9996
L22 45436 87.7949 72.7307 0017922 255.6625 260.7844 13.97146646 31626

Live tracking and technical data element details for ONEWEB-0095 (NORAD 45436). ONEWEB-0095 can be tracked NOW for your location showing map with azimuth and elevation plus other details from your city location.

Track the satellite on the map from your city or location and see movement details for azimuth, elevation, latitude, longitude, range, height, and movement on the map or in text.







IsCatalogInMostPopularTable: catalog: 45436, numindb: 52
Update: records affected: 1



GetName: 45436 ONEWEB-0095

Hit Count: updated at: Tue, 20 Oct 2020 12:20:07 GMT